Location: Koppur?v?ru
(16.3792°N, 80.5009°E)
Time: 03:05:28
(UTC+00:00)

Daily predictions for brighter satellites

Satellite Brightness Start Highest point End
(mag) Time Altitude Azimuth Time Altitude Azimuth Time Altitude Azimuth
CZ-4B DEB 4.4 00:01:05 10° N 00:06:21 50° WNW 00:11:38 10° SSW
METEOR-M 4.1 00:02:46 10° N 00:08:01 64° WNW 00:13:17 10° SSW
Cosmos 2061 Rocket 4.0 00:05:06 10° S 00:11:27 85° W 00:17:42 10° N
SKYMED 2 3.7 00:07:55 10° SSE 00:12:14 84° ENE 00:16:35 10° N
COSMOS 2487 2.4 00:11:20 10° SSW 00:14:46 88° ESE 00:18:13 10° NNE
Cosmos 923 Rocket 4.1 00:11:39 10° NNW 00:16:45 56° WSW 00:21:52 10° S
CZ-3C R/B 3.8 00:11:41 10° WSW 00:17:44 39° S 09:15:38 10° E
SWIFT 3.0 00:15:08 10° WSW 00:19:19 56° SSE 00:23:30 10° E
Radarsat Rocket 4.2 00:14:50 10° NNE 00:20:41 84° ESE 00:26:58 10° SSW
USA 267 3.7 00:15:45 10° NNE 00:21:45 40° NW 00:27:44 10° WSW
